Tracking 19795 objects as of 20-Jul-2019
HD Live streaming from Space Station
objects crossing your sky now

FENGYUN 1C DEB

Track FENGYUN 1C DEB now!
10-day predictions


NORAD ID: 37895
Int'l Code: 1999-025EMU
Perigee: 849.5 km
Apogee: 1,337.3 km
Inclination: 99.2 °
Period: 107.0 minutes
Semi major axis: 7464 km
RCS: 0.003 m2 (small)
Launch date: May 10, 1999
Source: People's Republic of China (PRC)
Launch site: Taiyaun Space Center, China (TSC)

Note: This is SATELLITE DEBRIS
aabbcc
Your satellite tracking list
Your tracking list is empty




NASA's NSSDC Master Catalog

Two Line Element Set (TLE):
1 37895U 99025EMU 19193.84616446  .00000358  00000-0  48278-3 0  9997
2 37895  99.1771 213.6479 0326709 306.4744  50.6691 13.46203025470582
Source of the keplerian elements: AFSPC